Wind_Speed
4 4 4 4 5 5 5 5 5 4 2 3 5 5 6 6 7 7 8 8 9 9 10 10 10 11 12 12 13 13 13 13 13 14 14 14 14 15 15 15 16 16 16
6 6 6 6 6 7 6 6 6 5 5 5 6 7 7 8 8 9 9 9 10 10 11 11 11 12 12 13 14 14 14 14 14 14 14 15 15 16 16 16 17 17 17
8 7 8 8 8 9 8 8 8 8 7 7 7 8 9 9 10 10 11 11 12 12 12 12 12 12 13 14 15 15 15 15 15 15 15 16 17 17 18 18 19 19 19
10 10 10 11 11 11 10 10 10 9 9 9 10 10 11 11 12 12 13 13 13 14 13 14 14 14 14 15 16 16 16 16 16 16 16 17 18 18 19 19 20 20 20
12 12 12 12 13 13 12 11 11 12 12 12 12 13 13 13 13 14 15 15 15 15 15 15 16 16 16 17 17 17 17 17 18 18 18 19 19 20 20 21 21 21 21
15 15 15 14 14 14 14 14 14 14 14 14 14 15 15 16 16 16 16 17 17 17 17 17 17 18 18 19 19 19 19 19 19 20 20 20 21 21 21 21 22 22 22
17 17 17 17 17 16 16 16 16 17 17 17 17 17 18 17 18 18 19 19 18 18 19 19 19 20 20 21 21 20 20 20 21 21 21 21 22 22 23 23 22 23 23
20 19 20 19 18 18 18 18 18 19 19 19 19 19 19 19 19 19 20 20 20 20 20 21 21 21 21 22 21 21 21 21 21 22 22 22 22 23 23 23 23 24 24
21 21 21 20 20 20 20 20 20 20 20 20 21 21 21 21 21 21 22 22 22 22 22 22 22 23 23 23 23 23 23 24 24 24 24 24 24 25 25 25 25 26 26
23 23 22 22 22 22 22 22 22 21 21 22 22 22 22 23 24 24 25 24 24 24 24 24 24 23 24 24 25 25 25 25 25 26 26 26 26 26 26 26 26 27 28
24 24 24 24 24 24 24 23 23 23 23 23 24 25 25 25 25 26 26 26 26 26 25 25 25 25 25 25 25 25 25 26 26 27 27 27 27 27 27 27 28 28 29
26 26 26 26 26 26 26 25 25 24 25 25 25 26 27 27 27 27 26 26 26 26 26 26 25 26 26 26 26 26 27 27 27 28 28 28 28 28 29 29 30 30 31
27 27 27 27 28 28 28 27 26 26 26 26 27 27 28 28 28 28 28 28 29 28 27 27 27 27 27 28 28 28 28 28 29 29 29 30 30 30 30 30 31 31 32
28 29 29 28 28 28 28 28 28 27 27 27 28 29 29 30 30 30 30 30 30 30 29 29 29 29 29 29 29 30 31 31 31 31 31 31 31 31 31 32 32 32 32
29 29 29 29 28 28 28 28 28 28 29 29 30 31 31 31 31 31 31 31 30 31 30 31 31 31 31 31 31 31 32 32 32 32 31 31 31 32 32 32 32 32 32
29 29 29 29 29 29 29 29 29 29 29 30 31 32 32 31 31 31 31 31 31 31 31 31 31 32 32 32 32 32 32 32 32 32 33 33 32 32 32 31 32 32 32
30 30 30 30 30 30 30 30 30 31 31 32 32 32 32 32 31 31 31 31 31 31 31 31 31 32 32 32 33 33 33 33 34 33 33 33 32 32 31 31 31 31 31
31 31 31 32 31 31 32 31 31 32 32 32 32 33 34 34 33 31 31 31 31 31 31 32 32 32 32 32 32 33 33 33 33 33 33 33 32 32 31 30 30 30 30
31 32 32 32 32 31 32 32 32 33 33 33 33 33 33 33 32 32 32 32 32 32 32 32 33 33 33 33 33 33 33 34 34 34 33 32 31 31 31 31 29 29 30
32 32 32 32 32 32 32 32 32 32 32 33 33 33 33 32 32 32 33 33 33 33 32 33 33 33 33 33 33 33 33 34 34 33 33 31 31 30 30 30 29 29 29
32 32 32 32 32 31 32 32 32 32 32 32 32 32 32 32 33 33 33 34 34 34 33 33 33 34 34 34 34 34 34 34 33 33 32 31 30 30 30 30 30 30 31
33 33 32 31 31 31 31 31 32 32 32 32 32 33 33 34 34 34 34 34 34 34 33 34 34 34 34 33 33 34 35 34 33 33 31 30 30 30 30 31 31 31 31
32 31 30 30 29 29 29 30 31 31 32 32 33 33 34 33 33 33 34 34 34 34 34 34 34 34 33 32 33 34 34 34 33 32 31 31 31 31 31 32 32 32 31
31 30 30 30 30 30 30 30 31 31 31 32 33 33 33 33 33 33 33 34 34 33 34 33 33 33 32 32 32 33 33 33 32 32 32 32 32 32 32 32 32 32 31
28 28 28 28 29 29 29 30 30 31 31 32 33 33 33 34 34 33 34 34 33 33 33 33 33 32 32 32 32 31 31 32 32 32 32 32 32 32 32 32 31 31 30
26 26 27 27 28 29 29 30 30 31 31 32 32 33 33 34 34 33 33 32 32 32 32 33 33 32 31 31 31 31 32 32 32 31 31 31 31 31 30 30 30 30 30
Wind_Direction
313 317 313 306 303 305 310 313 320 320 301 311 321 329 326 320 315 315 315 316 314 311 310 310 311 310 310 312 313 312 310 307 305 303 300 299 300 300 301 302 302 303 304
293 299 302 300 298 299 301 305 309 309 301 305 316 322 322 319 318 316 316 315 313 310 310 309 310 310 310 311 312 312 310 308 306 303 300 299 299 300 300 300 301 303 304
284 285 291 293 291 292 292 298 298 299 296 299 306 313 314 314 315 314 312 312 310 308 306 307 307 308 309 310 310 309 308 305 302 300 298 297 297 298 299 300 300 300 301
282 287 291 292 292 291 287 290 291 292 293 297 301 305 308 308 308 309 310 308 306 305 303 301 301 303 305 307 307 305 305 303 301 299 298 297 298 299 299 299 299 300 299
280 284 291 291 288 287 288 289 288 292 295 295 297 301 304 306 303 303 306 306 302 301 300 300 301 302 304 306 306 303 303 303 300 298 298 298 298 298 298 298 299 298 298
277 279 282 287 288 288 288 287 285 287 290 290 294 297 301 302 305 303 304 304 304 300 297 300 301 302 302 304 305 303 301 300 299 298 299 298 297 298 298 298 298 298 298
274 276 279 283 285 286 289 290 285 286 287 288 291 295 298 300 301 302 303 304 303 300 300 302 299 299 298 298 298 299 299 298 298 298 298 299 298 297 296 295 295 295 295
272 273 277 279 281 284 286 288 288 289 289 287 289 292 296 298 298 299 300 300 301 301 299 298 296 297 297 296 296 297 300 300 300 299 298 298 297 297 297 297 295 295 295
271 274 275 276 278 280 283 285 285 287 287 289 289 291 294 295 295 297 297 297 297 298 297 296 295 296 295 296 297 297 298 299 298 297 297 298 297 297 298 297 296 296 297
267 270 272 273 276 278 279 282 283 285 285 287 290 291 292 294 294 295 296 295 295 296 296 295 294 294 295 297 298 299 298 298 297 297 297 296 296 296 296 296 296 296 296
268 270 271 273 276 277 277 280 281 282 284 285 287 288 289 291 293 294 293 293 293 294 294 294 295 294 295 296 297 298 299 299 298 297 298 297 297 296 295 296 296 296 297
269 270 271 273 275 275 276 277 279 280 282 283 285 287 288 290 290 290 290 290 290 291 292 292 294 294 294 296 297 298 298 298 298 297 296 296 295 295 294 294 296 296 296
268 270 272 273 274 275 276 276 277 278 279 281 284 286 288 288 289 289 288 288 288 289 289 290 291 291 292 294 294 295 295 296 296 296 295 294 295 295 295 295 295 296 297
267 269 271 272 274 274 274 275 277 277 278 280 282 284 286 288 288 288 288 288 287 287 288 288 288 290 292 293 294 295 296 296 296 296 294 294 295 295 295 295 295 296 297
269 269 269 270 272 274 274 274 274 275 277 280 282 282 285 287 286 286 287 287 286 287 287 288 289 291 292 292 292 293 296 297 297 295 293 293 294 295 295 295 296 296 296
268 269 270 271 272 274 275 274 274 275 277 279 282 284 287 288 287 286 285 285 287 288 289 291 292 292 291 292 293 293 294 296 296 294 294 293 293 295 295 295 296 296 296
268 269 271 272 273 274 275 276 277 277 277 279 282 284 287 287 286 287 286 286 288 289 291 293 293 293 293 293 293 293 293 294 294 294 294 294 293 294 295 295 296 296 296
267 269 270 271 274 274 274 275 276 277 277 280 282 284 285 287 286 287 287 288 288 289 290 292 293 293 294 294 293 292 291 292 294 294 294 293 292 293 294 295 296 296 296
268 270 270 271 272 273 273 273 274 276 277 280 282 283 285 286 285 285 286 288 288 289 291 292 293 292 293 293 291 290 291 292 293 293 292 292 292 292 293 294 295 296 296
269 270 269 270 272 273 273 273 274 276 277 279 281 282 283 284 285 286 286 287 288 289 290 291 292 291 291 291 291 290 291 292 293 293 292 291 291 291 293 294 295 297 297
269 270 271 271 272 273 274 274 274 276 278 280 283 283 282 283 284 285 286 286 288 288 289 289 290 291 290 290 289 289 290 291 292 292 291 291 290 291 292 293 294 295 297
271 273 272 272 272 273 274 275 275 277 279 280 282 283 285 285 284 285 286 287 287 286 286 287 288 289 290 289 288 288 288 288 289 288 288 289 289 290 291 292 293 295 296
272 271 272 272 274 274 276 276 278 279 280 280 282 283 285 286 286 286 287 287 287 286 286 287 287 287 288 288 289 289 287 287 287 288 288 289 290 290 289 290 291 291 293
271 272 273 273 274 274 275 276 278 279 280 281 282 283 284 285 286 286 286 287 287 286 286 286 286 286 286 287 288 288 288 287 286 286 287 288 288 289 289 289 289 290 291
270 271 273 274 275 277 277 277 279 280 282 283 283 283 284 285 286 286 286 287 287 287 286 286 286 285 286 287 288 288 288 288 287 286 286 286 286 287 287 288 288 289 290
270 272 275 277 277 278 279 280 282 283 284 284 285 285 285 287 288 287 287 287 287 286 286 286 286 285 285 285 286 287 288 288 287 285 285 285 286 287 287 287 289 289 289
Height
5903 5903 5902 5901 5901 5900 5899 5898 5898 5896 5896 5895 5895 5894 5892 5891 5890 5889 5887 5886 5885 5883 5882 5880 5879 5877 5876 5874 5873 5871 5869 5867 5865 5864 5862 5860 5859 5857 5855 5854 5852 5850 5848
5902 5901 5901 5900 5899 5899 5898 5897 5896 5896 5895 5894 5893 5892 5891 5890 5888 5887 5886 5884 5883 5881 5880 5878 5876 5875 5873 5872 5870 5868 5866 5864 5862 5861 5859 5857 5855 5854 5852 5850 5848 5846 5844
5900 5899 5899 5898 5897 5897 5896 5896 5895 5894 5893 5893 5892 5891 5890 5888 5887 5885 5883 5882 5880 5878 5877 5875 5874 5872 5870 5869 5867 5865 5863 5861 5859 5857 5855 5853 5852 5850 5848 5846 5844 5842 5840
5898 5897 5896 5895 5895 5895 5894 5893 5893 5892 5891 5891 5890 5889 5887 5886 5884 5883 5881 5879 5877 5875 5874 5872 5871 5869 5867 5865 5863 5861 5859 5857 5855 5853 5851 5849 5847 5845 5843 5842 5840 5837 5835
5895 5894 5894 5893 5892 5892 5892 5891 5891 5890 5889 5888 5888 5886 5885 5883 5881 5880 5878 5876 5874 5872 5870 5869 5867 5866 5864 5862 5859 5857 5855 5853 5851 5849 5847 5845 5843 5840 5838 5836 5834 5832 5830
5891 5891 5890 5890 5889 5889 5889 5888 5888 5887 5886 5885 5884 5883 5882 5880 5879 5877 5875 5872 5870 5868 5866 5865 5863 5862 5860 5858 5855 5853 5850 5848 5846 5844 5842 5839 5837 5835 5833 5830 5828 5826 5824
5887 5887 5887 5887 5886 5886 5885 5884 5884 5883 5883 5882 5881 5880 5878 5877 5875 5873 5871 5869 5867 5864 5862 5861 5859 5857 5855 5853 5850 5848 5846 5843 5841 5839 5836 5834 5831 5829 5827 5824 5822 5820 5818
5881 5882 5882 5882 5882 5882 5881 5880 5880 5879 5878 5877 5876 5875 5874 5872 5871 5869 5867 5864 5862 5860 5858 5856 5854 5851 5849 5847 5845 5843 5840 5838 5835 5833 5831 5828 5826 5823 5821 5818 5816 5814 5811
5876 5877 5877 5877 5877 5877 5876 5876 5875 5873 5872 5872 5871 5870 5869 5868 5866 5864 5862 5859 5857 5855 5853 5851 5848 5846 5844 5841 5839 5837 5835 5832 5830 5827 5824 5822 5819 5817 5815 5812 5810 5807 5805
5871 5872 5872 5872 5872 5871 5871 5870 5869 5868 5867 5866 5866 5865 5863 5862 5860 5858 5856 5854 5852 5850 5847 5845 5843 5840 5838 5835 5833 5831 5828 5826 5823 5821 5818 5815 5813 5810 5808 5805 5803 5800 5798
5865 5865 5865 5865 5865 5865 5865 5864 5863 5862 5861 5860 5859 5858 5857 5855 5853 5851 5849 5847 5845 5843 5841 5838 5836 5834 5832 5829 5827 5824 5822 5819 5816 5813 5811 5808 5805 5803 5800 5798 5795 5793 5790
5858 5858 5858 5858 5858 5858 5857 5857 5856 5855 5855 5853 5852 5851 5850 5848 5846 5844 5843 5840 5838 5836 5834 5831 5829 5827 5825 5822 5820 5817 5814 5812 5809 5806 5803 5800 5798 5795 5793 5790 5787 5785 5782
5851 5851 5851 5851 5851 5850 5850 5849 5849 5848 5847 5846 5845 5844 5842 5840 5838 5836 5835 5833 5830 5828 5826 5824 5822 5820 5817 5815 5812 5809 5807 5804 5801 5798 5796 5793 5790 5787 5785 5782 5779 5777 5774
5843 5843 5843 5843 5843 5843 5842 5841 5841 5840 5839 5838 5837 5835 5834 5832 5830 5828 5826 5824 5822 5820 5818 5816 5813 5811 5809 5806 5804 5801 5799 5796 5793 5790 5787 5784 5781 5779 5776 5774 5771 5768 5765
5835 5835 5835 5835 5834 5834 5833 5833 5832 5831 5831 5830 5828 5827 5825 5824 5821 5819 5817 5815 5813 5812 5809 5807 5805 5802 5800 5798 5795 5792 5790 5787 5784 5781 5779 5776 5773 5770 5767 5765 5762 5759 5756
5826 5826 5826 5826 5826 5825 5825 5824 5823 5823 5822 5821 5820 5818 5816 5814 5812 5810 5809 5807 5805 5803 5801 5799 5796 5794 5791 5789 5786 5783 5781 5778 5775 5772 5770 5767 5764 5761 5758 5756 5753 5750 5747
5818 5818 5817 5817 5817 5816 5816 5815 5814 5813 5812 5811 5810 5809 5807 5805 5804 5802 5800 5798 5796 5794 5792 5790 5787 5785 5782 5779 5776 5774 5772 5769 5766 5763 5761 5758 5755 5752 5750 5747 5744 5742 5739
5809 5809 5808 5808 5808 5807 5806 5805 5805 5804 5803 5802 5801 5799 5798 5796 5794 5792 5790 5789 5787 5785 5783 5781 5778 5775 5772 5770 5767 5764 5762 5759 5757 5754 5751 5749 5746 5743 5741 5738 5736 5733 5730
5799 5799 5799 5799 5798 5797 5796 5796 5795 5794 5793 5792 5791 5789 5788 5786 5784 5783 5781 5779 5777 5775 5773 5771 5768 5765 5763 5760 5757 5755 5752 5750 5747 5744 5742 5739 5737 5734 5732 5729 5727 5724 5721
5790 5790 5789 5788 5788 5787 5786 5786 5785 5784 5783 5782 5781 5779 5777 5776 5774 5773 5771 5769 5767 5765 5763 5761 5758 5755 5753 5750 5748 5745 5743 5740 5737 5735 5732 5730 5727 5725 5723 5720 5718 5715 5712
5780 5780 5779 5778 5778 5777 5776 5776 5775 5774 5773 5772 5770 5769 5767 5766 5764 5762 5760 5759 5757 5755 5753 5750 5748 5745 5743 5740 5737 5735 5733 5730 5728 5725 5722 5720 5718 5715 5713 5711 5708 5706 5703
5771 5770 5770 5769 5768 5767 5766 5766 5765 5764 5763 5762 5760 5759 5757 5756 5754 5752 5750 5748 5746 5744 5742 5740 5737 5735 5732 5729 5727 5725 5722 5720 5718 5715 5713 5710 5708 5706 5704 5701 5699 5697 5694
5761 5760 5760 5759 5758 5758 5757 5756 5755 5754 5753 5752 5750 5749 5747 5745 5743 5741 5739 5737 5735 5733 5731 5729 5727 5724 5722 5719 5716 5714 5712 5709 5707 5705 5702 5700 5698 5696 5694 5692 5690 5687 5685
5753 5752 5751 5750 5750 5749 5748 5747 5746 5745 5743 5742 5740 5738 5737 5735 5733 5731 5728 5726 5724 5722 5720 5718 5715 5713 5711 5708 5706 5703 5701 5699 5697 5695 5692 5690 5688 5686 5684 5682 5679 5677 5675
5743 5742 5742 5741 5741 5740 5739 5738 5737 5735 5734 5732 5730 5728 5726 5724 5722 5720 5718 5715 5713 5711 5708 5706 5704 5702 5700 5698 5696 5693 5691 5689 5686 5684 5682 5680 5678 5676 5674 5672 5669 5667 5665
5734 5734 5734 5733 5732 5731 5730 5729 5727 5726 5724 5722 5720 5718 5716 5713 5711 5709 5707 5705 5702 5700 5697 5695 5693 5691 5689 5687 5685 5683 5681 5678 5676 5674 5671 5669 5668 5666 5664 5662 5659 5657 5655